PORT of GERALDTON

Land: Australia Land: Australia (AU)
Breddegrad / Længdegrad: -28.7745° / 114.594° Vis på kort Vis på kort
Lokal Tid (LT):  UTC +8
UN/LOCODE: AUGET
Fartøjer i havn i øjeblikket: 7
Forventet ankomst: 11

Nylige ankomster & afgange


Fartøjs navn
Ankomst (UTC)
Ankomst (LT)
Afgang (UTC)
Afgang (LT)
Vessel Type: Fragtskibe  SEACON 9 2014-10-31 10:38:00 2014-10-31 18:38:00
Vessel Type: Bugserbåd, Lodsbåd, etc  WAJARRI 2014-10-31 10:37:00 2014-10-31 18:37:00
Vessel Type: Bugserbåd, Lodsbåd, etc  WAJARRI 2014-10-30 14:40:00 2014-10-30 22:40:00 2014-10-31 10:15:00 2014-10-31 18:15:00
Vessel Type: Bugserbåd, Lodsbåd, etc  PILOT BOAT 2 2014-10-31 10:05:00 2014-10-31 18:05:00
Vessel Type: Bugserbåd, Lodsbåd, etc  PILOT BOAT 2 2014-10-30 14:14:00 2014-10-30 22:14:00 2014-10-31 09:34:00 2014-10-31 17:34:00
Vessel Type: Yachts & andre  ENDORFIN 2014-10-29 03:38:00 2014-10-29 11:38:00 2014-10-31 02:32:00 2014-10-31 10:32:00
Vessel Type: Yachts & andre  ME 2 2014-10-25 09:33:00 2014-10-25 17:33:00 2014-10-31 01:08:00 2014-10-31 09:08:00
Vessel Type: Yachts & andre  CALM 2014-10-31 01:06:00 2014-10-31 09:06:00
Vessel Type: Yachts & andre  GP42 2014-10-25 04:03:00 2014-10-25 12:03:00 2014-10-31 01:02:00 2014-10-31 09:02:00
Vessel Type: Yachts & andre  FINISTERE 2014-10-30 03:47:00 2014-10-30 11:47:00 2014-10-31 01:01:00 2014-10-31 09:01:00

Forventet ankomst


Fartøjs navn
Scheduled Arrival (UTC)
Planlagt ankomst (LT)
Anslående ankomsttidspunkt (UTC)
Anslående ankomsttidspunkt (LT)
Vessel Type: Fragtskibe  COAL GYPSY 2014-11-01 01:00:00 2014-11-01 09:00:00
Vessel Type: Fragtskibe  LIGARI 2014-11-01 16:00:00 2014-11-02 00:00:00 2014-11-01 08:33:00 2014-11-01 16:33:00
Vessel Type: Fragtskibe  CSL THEVENARD 2014-11-02 00:00:00 2014-11-02 08:00:00 2014-11-01 23:47:00 2014-11-02 07:47:00
Vessel Type: Fragtskibe  SAHIWAL EXPRESS 2014-11-02 18:00:00 2014-11-03 02:00:00 2014-11-03 10:09:00 2014-11-03 18:09:00
Vessel Type: Fragtskibe  SEMIRAMIS 2014-11-03 03:00:00 2014-11-03 11:00:00 2014-11-03 11:52:00 2014-11-03 19:52:00
Vessel Type: Fragtskibe  JAWOR 2014-11-06 01:24:00 2014-11-06 09:24:00 2014-11-09 13:30:00 2014-11-09 21:30:00
Vessel Type: Fragtskibe  MEGAH ENAM 2014-11-06 02:00:00 2014-11-06 10:00:00 2014-11-05 03:36:00 2014-11-05 11:36:00
Vessel Type: Fragtskibe  LOVELAND ISLAND 2014-11-06 10:00:00 2014-11-06 18:00:00 2014-11-05 19:45:00 2014-11-06 03:45:00
Vessel Type: Fragtskibe  SPRING SUNSHINE 2014-11-08 01:00:00 2014-11-08 09:00:00 2014-11-07 23:13:00 2014-11-08 07:13:00
Vessel Type: Fragtskibe  HANJIN BOMBAY 2014-11-08 04:00:00 2014-11-08 12:00:00 2014-11-08 18:13:00 2014-11-09 02:13:00

Wind Forecast


    
Tid (UTC)
Hastighed
Direction
Temperature
2014-11-01 03:00:00 5 knots 210° 22°C
2014-11-01 06:00:00 15 knots 224° 22°C
2014-11-01 09:00:00 15 knots 213° 20°C
2014-11-01 12:00:00 11 knots 193° 20°C
2014-11-01 15:00:00 10 knots 181° 20°C
2014-11-01 18:00:00 8 knots 176° 19°C
2014-11-01 21:00:00 7 knots 185° 18°C
2014-11-02 00:00:00 8 knots 211° 19°C
2014-11-02 03:00:00 13 knots 228° 20°C
2014-11-02 06:00:00 15 knots 229° 20°C
2014-11-02 09:00:00 14 knots 223° 20°C
2014-11-02 12:00:00 13 knots 214° 20°C
2014-11-02 15:00:00 12 knots 206° 20°C
2014-11-02 18:00:00 17 knots 190° 20°C
2014-11-02 21:00:00 17 knots 168° 19°C
2014-11-03 00:00:00 16 knots 161° 19°C
2014-11-03 03:00:00 15 knots 174° 20°C

NO_PHOTO

No Photos for this port. Be the first to upload one!